• In Portugal
  • List of Countries
  • For 7 days
  • Water Temperature
  • Satellite Maps
  • Weather Map
  • Weather Widgets
  • user-avatar
    Login

    Hourly Weather Kalat

    Today, 22 January, Monday

    Time Temperature Precipitation Wind Pressure Humidity
    00:00 -18°C° 0 mm 4 mps 467 mmHg 35%
    01:00 -19°C° 0 mm 4 mps 466 mmHg 34%
    02:00 -19°C° 0 mm 4 mps 466 mmHg 34%
    03:00 -19°C° 0 mm 4 mps 466 mmHg 34%
    04:00 -19°C° 0 mm 4 mps 466 mmHg 34%
    05:00 -19°C° 0 mm 4 mps 466 mmHg 34%
    06:00 -19°C° 0 mm 4 mps 466 mmHg 34%
    07:00 -19°C° 0 mm 4 mps 466 mmHg 34%
    08:00 -19°C° 0 mm 4 mps 466 mmHg 34%
    09:00 -17°C° 0 mm 4 mps 468 mmHg 39%
    10:00 -13°C° 0 mm 3 mps 469 mmHg 45%
    11:00 -10°C° 0 mm 3 mps 471 mmHg 50%
    12:00 -9°C° 0 mm 3 mps 471 mmHg 49%
    13:00 -9°C° 0 mm 3 mps 471 mmHg 49%
    14:00 -7°C° 0 mm 2 mps 471 mmHg 48%
    15:00 -9°C° 0 mm 2 mps 469 mmHg 51%
    16:00 -12°C° 0 mm 2 mps 468 mmHg 55%
    17:00 -14°C° 0 mm 2 mps 467 mmHg 58%
    18:00 -15°C° 0 mm 2 mps 466 mmHg 55%
    19:00 -17°C° 0 mm 3 mps 466 mmHg 51%
    20:00 -18°C° 0 mm 3 mps 466 mmHg 48%
    21:00 -19°C° 0 mm 3 mps 466 mmHg 46%
    22:00 -19°C° 0 mm 3 mps 466 mmHg 44%
    23:00 -19°C° 0 mm 3 mps 466 mmHg 42%

    Tomorrow, 23 January, Tuesday

    Time Temperature Precipitation Wind Pressure Humidity
    00:00 -19°C° 0 mm 3 mps 465 mmHg 41%
    01:00 -19°C° 0 mm 3 mps 465 mmHg 40%
    02:00 -21°C° 0 mm 3 mps 465 mmHg 40%
    03:00 -21°C° 0 mm 3 mps 465 mmHg 40%
    04:00 -21°C° 0 mm 3 mps 465 mmHg 40%
    05:00 -19°C° 0 mm 2 mps 464 mmHg 40%
    06:00 -19°C° 0 mm 2 mps 465 mmHg 41%
    07:00 -19°C° 0 mm 2 mps 465 mmHg 42%
    08:00 -18°C° 0 mm 2 mps 465 mmHg 43%
    09:00 -16°C° 0 mm 2 mps 467 mmHg 43%
    10:00 -14°C° 0 mm 2 mps 468 mmHg 44%
    11:00 -9°C° 0 mm 1 mps 469 mmHg 44%
    12:00 -9°C° 0 mm 1 mps 469 mmHg 45%
    13:00 -9°C° 0 mm 1 mps 469 mmHg 45%
    14:00 -8°C° 0 mm 1 mps 469 mmHg 46%
    15:00 -10°C° 0 mm 1 mps 468 mmHg 50%
    16:00 -11°C° 0 mm 1 mps 466 mmHg 55%
    17:00 -13°C° 0 mm 0 mps 465 mmHg 59%
    18:00 -14°C° 0 mm 1 mps 465 mmHg 58%
    19:00 -17°C° 0 mm 2 mps 465 mmHg 56%
    20:00 -19°C° 0 mm 3 mps 464 mmHg 55%
    21:00 -19°C° 0 mm 3 mps 464 mmHg 51%
    22:00 -19°C° 0 mm 3 mps 464 mmHg 48%
    23:00 -19°C° 0 mm 3 mps 464 mmHg 44%

    Day after tomorrow, 24 January, Wednesday

    Time Temperature Precipitation Wind Pressure Humidity
    00:00 -19°C° 0 mm 3 mps 464 mmHg 40%
    01:00 -19°C° 0 mm 3 mps 464 mmHg 36%
    02:00 -19°C° 0 mm 3 mps 464 mmHg 32%
    03:00 -19°C° 0 mm 3 mps 464 mmHg 29%
    04:00 -19°C° 0 mm 3 mps 464 mmHg 27%
    05:00 -19°C° 0 mm 3 mps 463 mmHg 24%
    06:00 -18°C° 0 mm 2 mps 464 mmHg 25%
    07:00 -17°C° 0 mm 2 mps 464 mmHg 25%
    08:00 -17°C° 0 mm 2 mps 465 mmHg 25%
    09:00 -15°C° 0 mm 2 mps 466 mmHg 28%
    10:00 -10°C° 0 mm 1 mps 468 mmHg 32%
    11:00 -8°C° 0 mm 1 mps 469 mmHg 35%
    12:00 -7°C° 0 mm 1 mps 469 mmHg 38%
    13:00 -7°C° 0 mm 1 mps 469 mmHg 40%
    14:00 -7°C° 0 mm 1 mps 469 mmHg 43%
    15:00 -8°C° 0 mm 1 mps 468 mmHg 48%
    16:00 -10°C° 0 mm 1 mps 467 mmHg 54%
    17:00 -11°C° 0 mm 1 mps 466 mmHg 60%
    18:00 -12°C° 0 mm 1 mps 466 mmHg 61%
    19:00 -13°C° 0 mm 1 mps 466 mmHg 62%
    20:00 -16°C° 0 mm 2 mps 466 mmHg 63%
    21:00 -16°C° 0 mm 2 mps 466 mmHg 64%
    22:00 -16°C° 0 mm 2 mps 466 mmHg 65%
    23:00 -16°C° 0 mm 2 mps 466 mmHg 66%

    25 January, Thursday

    Time Temperature Precipitation Wind Pressure Humidity
    00:00 -16°C° 0 mm 2 mps 466 mmHg 66%
    01:00 -16°C° 0 mm 2 mps 465 mmHg 67%
    02:00 -16°C° 0 mm 2 mps 465 mmHg 67%
    03:00 -16°C° 0 mm 2 mps 465 mmHg 69%
    04:00 -16°C° 0 mm 2 mps 465 mmHg 70%
    05:00 -17°C° 0 mm 2 mps 465 mmHg 72%
    06:00 -16°C° 0 mm 2 mps 465 mmHg 74%
    07:00 -16°C° 0 mm 2 mps 466 mmHg 76%
    08:00 -16°C° 0 mm 2 mps 466 mmHg 78%
    09:00 -15°C° 0 mm 2 mps 467 mmHg 76%
    10:00 -14°C° 0 mm 2 mps 468 mmHg 74%
    11:00 -14°C° 0 mm 3 mps 469 mmHg 72%
    12:00 -14°C° 0 mm 3 mps 469 mmHg 72%
    13:00 -13°C° 0 mm 3 mps 468 mmHg 72%
    14:00 -13°C° 0 mm 3 mps 468 mmHg 72%
    15:00 -14°C° 0 mm 3 mps 468 mmHg 75%
    16:00 -16°C° 0 mm 3 mps 467 mmHg 79%
    17:00 -17°C° 0 mm 3 mps 466 mmHg 82%
    18:00 -18°C° 0 mm 3 mps 466 mmHg 83%
    19:00 -19°C° 0 mm 3 mps 465 mmHg 84%
    20:00 -21°C° 0 mm 3 mps 465 mmHg 85%
    21:00 -22°C° 0 mm 3 mps 465 mmHg 84%
    22:00 -22°C° 0 mm 3 mps 465 mmHg 82%
    23:00 -22°C° 0 mm 3 mps 465 mmHg 81%

    26 January, Friday

    Time Temperature Precipitation Wind Pressure Humidity
    00:00 -22°C° 0 mm 3 mps 465 mmHg 80%
    01:00 -23°C° 0 mm 3 mps 464 mmHg 80%
    02:00 -23°C° 0 mm 3 mps 464 mmHg 79%
    03:00 -23°C° 0 mm 3 mps 464 mmHg 79%
    04:00 -23°C° 0 mm 3 mps 464 mmHg 78%
    05:00 -23°C° 0 mm 3 mps 464 mmHg 78%
    06:00 -23°C° 0 mm 3 mps 465 mmHg 77%
    07:00 -23°C° 0 mm 3 mps 465 mmHg 77%
    08:00 -23°C° 0 mm 3 mps 465 mmHg 76%
    09:00 -19°C° 0 mm 3 mps 466 mmHg 72%
    10:00 -17°C° 0 mm 3 mps 468 mmHg 68%
    11:00 -14°C° 0 mm 2 mps 469 mmHg 64%
    12:00 -14°C° 0 mm 3 mps 469 mmHg 63%
    13:00 -14°C° 0 mm 3 mps 469 mmHg 62%
    14:00 -13°C° 0 mm 3 mps 469 mmHg 61%
    15:00 -14°C° 0 mm 3 mps 468 mmHg 66%
    16:00 -15°C° 0 mm 2 mps 467 mmHg 70%
    17:00 -16°C° 0 mm 2 mps 466 mmHg 75%
    18:00 -18°C° 0 mm 2 mps 465 mmHg 75%
    19:00 -21°C° 0 mm 3 mps 465 mmHg 75%
    20:00 -22°C° 0 mm 3 mps 464 mmHg 75%
    21:00 -22°C° 0 mm 3 mps 464 mmHg 73%
    22:00 -22°C° 0 mm 3 mps 464 mmHg 71%
    23:00 -22°C° 0 mm 3 mps 464 mmHg 70%

    27 January, Saturday

    Time Temperature Precipitation Wind Pressure Humidity
    00:00 -22°C° 0 mm 3 mps 464 mmHg 69%
    01:00 -22°C° 0 mm 3 mps 464 mmHg 69%
    02:00 -22°C° 0 mm 3 mps 464 mmHg 68%
    03:00 -22°C° 0 mm 3 mps 463 mmHg 68%
    04:00 -22°C° 0 mm 3 mps 463 mmHg 68%
    05:00 -22°C° 0 mm 3 mps 463 mmHg 68%
    06:00 -22°C° 0 mm 3 mps 463 mmHg 68%
    07:00 -22°C° 0 mm 3 mps 463 mmHg 67%
    08:00 -22°C° 0 mm 3 mps 463 mmHg 67%
    09:00 -19°C° 0 mm 3 mps 465 mmHg 65%
    10:00 -16°C° 0 mm 2 mps 466 mmHg 62%
    11:00 -13°C° 0 mm 2 mps 468 mmHg 60%
    12:00 -13°C° 0 mm 2 mps 468 mmHg 58%
    13:00 -12°C° 0 mm 2 mps 468 mmHg 57%
    14:00 -10°C° 0 mm 2 mps 468 mmHg 56%
    15:00 -13°C° 0 mm 2 mps 467 mmHg 59%
    16:00 -14°C° 0 mm 2 mps 466 mmHg 63%
    17:00 -16°C° 0 mm 2 mps 465 mmHg 67%
    18:00 -16°C° 0 mm 2 mps 465 mmHg 67%
    19:00 -17°C° 0 mm 2 mps 464 mmHg 66%
    20:00 -19°C° 0 mm 3 mps 464 mmHg 65%
    21:00 -19°C° 0 mm 3 mps 464 mmHg 65%
    22:00 -19°C° 0 mm 3 mps 464 mmHg 64%
    23:00 -19°C° 0 mm 3 mps 464 mmHg 64%
    Show more